Tracking 19795 objects as of 20-Jul-2019
HD Live streaming from Space Station
objects crossing your sky now

COSMOS 842

Track COSMOS 842 now!
10-day predictions
COSMOS 842 is classified as:


NORAD ID: 9025
Int'l Code: 1976-070A
Perigee: 970.8 km
Apogee: 1,013.6 km
Inclination: 83.0 °
Period: 104.8 minutes
Semi major axis: 7363 km
RCS: 2.9713 m2 (large)
Launch date: July 21, 1976
Source: Commonwealth of Independent States (former USSR) (CIS)
Launch site: PLESETSK MISSILE AND SPACE COMPLEX (PKMTR)
aabbcc
Your satellite tracking list
Your tracking list is empty




NASA's NSSDC Master Catalog

Two Line Element Set (TLE):
1  9025U 76070A   19201.23443882  .00000040  00000-0  26437-4 0  9993
2  9025  82.9881 111.4081 0029094 101.6275   7.9801 13.74052311155706
Source of the keplerian elements: AFSPC